Weather History for Jonesville, VA

Change the Weather History Date:

Friday, April 19, 2013

  Actual Average (KLOZ) Record (KLOZ)
Temperature  
Mean Temperature 58 °F 58 °F  
Max Temperature 71 °F 70 °F 87 °F (1970)
Min Temperature 44 °F 46 °F 24 °F (1983)
Degree Days  
Heating Degree Days 8 8  
Month to date heating degree days 202  
Since 1 July heating degree days 4027  
Cooling Degree Days 0 1  
Month to date cooling degree days 11  
Year to date cooling degree days 14  
Growing Degree Days 8 (Base 50)    
Moisture  
Dew Point 49 °F    
Average Humidity 74    
Maximum Humidity 100    
Minimum Humidity 57    
Precipitation  
Precipitation 0.94 in 0.14 in 1.14 in (2013)
Month to date precipitation 2.48  
Year to date precipitation 13.78  
Sea Level Pressure  
Sea Level Pressure 29.85 in    
Wind  
Wind Speed 8 mph (WSW)    
Max Wind Speed 14 mph    
Max Gust Speed 33 mph    
Visibility 8 miles    
Events Rain    
T = Trace of Precipitation, MM = Missing Value Source: NWS Daily Summary

Daily Weather History Graph

Daily Weather History Graph

Search for Another Location

Airport:

Trip Planner

Search our weather history database for the weather conditions in past years. The results will help you decide how hot, cold, wet, or windy it might be!

Date:

Astronomy

Apr. 19, 2013 Rise Set
Actual Time 6:53 AM EDT 8:10 PM EDT
Civil Twilight 6:26 AM EDT 8:37 PM EDT
Nautical Twilight 5:54 AM EDT 9:10 PM EDT
Astronomical Twilight 5:20 AM EDT 9:43 PM EDT
Moon 2:04 PM EDT (4/19) 2:58 AM EDT (4/19)
Length of Visible Light 14h 11m
Length of Day
13h 17m
First Quarter, 61% of the Moon is Illuminated
Apr 19
First Quarter
Apr 25
Full
May 2
Last Quarter
May 9
New
May 18
First Quarter

Hourly Weather History & Observations

Time (EDT) Temp. Windchill Dew Point Humidity Pressure Visibility Wind Dir Wind Speed Gust Speed Precip Events Conditions
12:15 AM 71.6 °F - 55.4 °F 57% 29.85 in 10.0 mi South 8.1 mph - N/A   Clear
12:35 AM 71.6 °F - 55.4 °F 57% 29.85 in 10.0 mi SSE 8.1 mph - N/A   Clear
12:55 AM 71.6 °F - 57.2 °F 60% 29.84 in 10.0 mi SSE 8.1 mph - N/A   Partly Cloudy
1:15 AM 71.6 °F - 57.2 °F 60% 29.83 in 10.0 mi SSE 6.9 mph - N/A   Clear
1:35 AM 69.8 °F - 57.2 °F 64% 29.82 in 10.0 mi SSE 6.9 mph - N/A   Partly Cloudy
1:55 AM 69.8 °F - 57.2 °F 64% 29.81 in 10.0 mi SSE 6.9 mph - N/A   Partly Cloudy
2:15 AM 69.8 °F - 57.2 °F 64% 29.78 in 10.0 mi SSE 8.1 mph - N/A   Partly Cloudy
2:35 AM 69.8 °F - 57.2 °F 64% 29.78 in 10.0 mi South 10.4 mph 19.6 mph N/A   Scattered Clouds
2:55 AM 69.8 °F - 57.2 °F 64% 29.77 in 10.0 mi SSE 9.2 mph 19.6 mph N/A   Partly Cloudy
3:15 AM 69.8 °F - 57.2 °F 64% 29.76 in 10.0 mi SSE 12.7 mph - N/A   Clear
3:35 AM 69.8 °F - 57.2 °F 64% 29.75 in 10.0 mi South 10.4 mph 18.4 mph N/A   Partly Cloudy
3:55 AM 69.8 °F - 57.2 °F 64% 29.74 in 10.0 mi SSE 8.1 mph - N/A   Clear
4:15 AM 69.8 °F - 57.2 °F 64% 29.73 in 10.0 mi SSE 9.2 mph - N/A   Partly Cloudy
4:35 AM 69.8 °F - 57.2 °F 64% 29.72 in 10.0 mi SSE 5.8 mph - N/A   Scattered Clouds
4:55 AM 68.0 °F - 57.2 °F 68% 29.73 in 10.0 mi South 5.8 mph - N/A   Scattered Clouds
5:15 AM 68.0 °F - 57.2 °F 68% 29.73 in 10.0 mi South 8.1 mph - N/A   Mostly Cloudy
5:35 AM 68.0 °F - 57.2 °F 68% 29.72 in 10.0 mi South 5.8 mph - N/A   Mostly Cloudy
5:55 AM 68.0 °F - 57.2 °F 68% 29.72 in 10.0 mi SSE 5.8 mph - N/A   Overcast
6:15 AM 68.0 °F - 57.2 °F 68% 29.72 in 10.0 mi South 6.9 mph - N/A   Overcast
6:35 AM 68.0 °F - 57.2 °F 68% 29.72 in 10.0 mi SE 6.9 mph - N/A   Overcast
6:55 AM 66.2 °F - 59.0 °F 78% 29.75 in 5.0 mi SW 6.9 mph - 0.01 in Rain Light Rain
7:15 AM 64.4 °F - 59.0 °F 83% 29.74 in 4.0 mi Calm Calm - 0.02 in Rain Light Rain
7:35 AM 62.6 °F - 60.8 °F 94% 29.74 in 2.0 mi Calm Calm - 0.07 in Rain Rain
7:55 AM 62.6 °F - 62.6 °F 100% 29.76 in 2.0 mi Calm Calm - 0.17 in Rain Rain
8:15 AM 62.6 °F - 62.6 °F 100% 29.77 in 1.5 mi Calm Calm - 0.13 in Rain Rain
8:35 AM 64.4 °F - 60.8 °F 88% 29.77 in 1.5 mi SSW 12.7 mph 24.2 mph 0.16 in Rain Light Rain
8:55 AM 64.4 °F - 60.8 °F 88% 29.76 in 2.0 mi SW 13.8 mph 25.3 mph 0.17 in Rain Rain
9:15 AM 62.6 °F - 62.6 °F 100% 29.75 in 1.5 mi SW 3.5 mph - 0.05 in Rain Rain
9:55 AM 62.6 °F - 62.6 °F 100% 29.74 in 1.2 mi Calm Calm - 0.33 in Rain Rain
10:15 AM 62.6 °F - 62.6 °F 100% 29.74 in 2.0 mi West 3.5 mph - 0.09 in Rain Light Rain
10:35 AM 62.6 °F - 62.6 °F 100% 29.74 in 2.5 mi SW 6.9 mph - 0.11 in Rain Light Rain
10:55 AM 59.0 °F - 59.0 °F 100% 29.77 in 2.5 mi WNW 11.5 mph 33.4 mph 0.12 in Rain Light Rain
11:15 AM 57.2 °F - 55.4 °F 94% 29.77 in 3.0 mi West 8.1 mph - 0.01 in Rain Light Rain
11:35 AM 53.6 °F - 53.6 °F 100% 29.79 in 1.5 mi West 9.2 mph 19.6 mph 0.06 in Rain Light Rain
11:55 AM 53.6 °F - 51.8 °F 94% 29.81 in 3.0 mi West 8.1 mph 17.3 mph 0.10 in Rain Light Rain
12:15 PM 53.6 °F - 50.0 °F 88% 29.83 in 5.0 mi West 12.7 mph 18.4 mph N/A Rain Light Rain
12:35 PM 51.8 °F - 48.2 °F 88% 29.83 in 7.0 mi West 11.5 mph 17.3 mph 0.02 in Rain Light Rain
12:55 PM 50.0 °F - 48.2 °F 94% 29.85 in 3.0 mi West 9.2 mph - 0.04 in Rain Light Rain
1:15 PM 50.0 °F - 48.2 °F 94% 29.87 in 10.0 mi West 8.1 mph - N/A   Mostly Cloudy
1:35 PM 50.0 °F - 46.4 °F 87% 29.86 in 10.0 mi WNW 6.9 mph - N/A   Overcast
1:55 PM 50.0 °F - 46.4 °F 87% 29.85 in 10.0 mi WNW 6.9 mph - N/A   Overcast
2:15 PM 50.0 °F - 46.4 °F 87% 29.85 in 10.0 mi West 6.9 mph - N/A   Overcast
2:35 PM 50.0 °F - 46.4 °F 87% 29.87 in 10.0 mi NW 8.1 mph - N/A   Overcast
2:55 PM 50.0 °F - 44.6 °F 82% 29.88 in 10.0 mi WNW 6.9 mph - N/A   Mostly Cloudy
3:15 PM 50.0 °F - 42.8 °F 76% 29.90 in 10.0 mi West 9.2 mph - N/A   Mostly Cloudy
3:35 PM 50.0 °F - 41.0 °F 71% 29.89 in 10.0 mi WNW 8.1 mph - N/A   Mostly Cloudy
3:55 PM 51.8 °F - 42.8 °F 71% 29.88 in 10.0 mi NW 6.9 mph - N/A   Mostly Cloudy
4:15 PM 50.0 °F - 41.0 °F 71% 29.90 in 10.0 mi West 8.1 mph - N/A   Overcast
4:35 PM 51.8 °F - 42.8 °F 71% 29.90 in 10.0 mi NW 12.7 mph 16.1 mph N/A   Overcast
4:55 PM 50.0 °F - 41.0 °F 71% 29.90 in 10.0 mi West 9.2 mph - N/A   Overcast
5:15 PM 50.0 °F - 41.0 °F 71% 29.92 in 10.0 mi WNW 6.9 mph - N/A   Overcast
5:35 PM 50.0 °F - 41.0 °F 71% 29.90 in 10.0 mi WNW 3.5 mph - N/A   Overcast
5:55 PM 50.0 °F - 39.2 °F 66% 29.92 in 10.0 mi West 8.1 mph - N/A   Overcast
6:15 PM 50.0 °F - 39.2 °F 66% 29.92 in 10.0 mi WNW 11.5 mph - N/A   Mostly Cloudy
6:35 PM 50.0 °F - 39.2 °F 66% 29.92 in 10.0 mi WNW 8.1 mph - N/A   Mostly Cloudy
6:55 PM 50.0 °F - 39.2 °F 66% 29.92 in 10.0 mi WNW 8.1 mph - N/A   Overcast
7:15 PM 48.2 °F - 37.4 °F 66% 29.92 in 10.0 mi WNW 6.9 mph - N/A   Scattered Clouds
7:35 PM 48.2 °F - 37.4 °F 66% 29.93 in 10.0 mi NW 6.9 mph - N/A   Clear
7:55 PM 48.2 °F - 37.4 °F 66% 29.94 in 10.0 mi WNW 9.2 mph - N/A   Scattered Clouds
8:15 PM 48.2 °F - 37.4 °F 66% 29.95 in 10.0 mi WNW 13.8 mph 17.3 mph N/A   Overcast
8:35 PM 46.4 °F 40.7 °F 35.6 °F 66% 29.97 in 10.0 mi WNW 12.7 mph 16.1 mph N/A   Overcast
8:55 PM 46.4 °F 41.9 °F 32.0 °F 57% 29.99 in 10.0 mi West 9.2 mph 19.6 mph N/A   Overcast
9:15 PM 46.4 °F 41.5 °F 32.0 °F 57% 30.00 in 10.0 mi West 10.4 mph - N/A   Overcast
9:35 PM 46.4 °F 42.9 °F 33.8 °F 62% 30.01 in 10.0 mi West 6.9 mph - N/A   Overcast
9:55 PM 46.4 °F 42.9 °F 33.8 °F 62% 30.02 in 10.0 mi West 6.9 mph - N/A   Overcast
10:15 PM 46.4 °F 42.9 °F 35.6 °F 66% 30.03 in 10.0 mi West 6.9 mph - N/A   Overcast
10:35 PM 46.4 °F 41.5 °F 33.8 °F 62% 30.04 in 10.0 mi WNW 10.4 mph - N/A   Overcast
10:55 PM 46.4 °F 41.9 °F 32.0 °F 57% 30.05 in 10.0 mi WNW 9.2 mph - N/A   Overcast
11:15 PM 44.6 °F 39.7 °F 32.0 °F 61% 30.06 in 10.0 mi WNW 9.2 mph - N/A   Overcast
11:35 PM 44.6 °F 40.7 °F 32.0 °F 61% 30.07 in 10.0 mi NW 6.9 mph - N/A   Overcast
11:55 PM 44.6 °F 38.4 °F 32.0 °F 61% 30.08 in 10.0 mi WNW 12.7 mph 20.7 mph N/A   Overcast